Weather in Sorok

Russia / Republic of Buryatia     52°19′24″N   100°10′27″E
temp.,
°C
wind,
m/s
gust,
m/s
humid.,
%
clouds,
%
prec.,
mm/h
press.,
hPa
HPBL,
m
20 january, thu
thu2023:00−18sse119990 0.1 103010
02:00−19sse1199100 0.1 103112
05:00−21se1110090 0.1 10339
08:00−23s1110098 0.1 10369
11:00−18s119799 0.1 103347
14:00−14s1190100 0.1 1028157
17:00−14nne1194100 0.0 10299
20:00−16e0098100 0.0 10329
21 january, fri
fri2123:00−15se1197100 0.3 103136
02:00−16wnw009897 0.6 10339
05:00−18s119993 0.2 10359
08:00−20sse1110098 0.3 10379
11:00−17se1195100 0.1 103572
14:00−13ne1188100 0.2 1030272
17:00−12nne1195100 0.3 1028176
20:00−14ne1197100 0.8 102920
22 january, sat
sat2223:00−15ene1197100 0.4 103016
02:00−16ene1197100 0.7 103110
05:00−17ese1198100 0.2 10319
08:00−19se1199100 0.3 10339
11:00−16sse1195100 0.1 103278
14:00−14s0186100 0.1 1028288
17:00−13nnw1195100 0.1 102884
20:00−18n1199100 0.3 10329
23 january, sun
sun2323:00−18ene0098100 0.3 103410
02:00−19nne0199100 0.5 10349
05:00−19nnw0099100 0.3 103510
08:00−19nnw1199100 0.6 103612
11:00−17nnw1195100 0.3 1035153
14:00−15nw1287100 0.6 1033458
17:00−15nw1296100 0.2 103371
20:00−18n1199100 0.4 103710
24 january, mon
mon2423:00−20n11100100 0.2 10399
02:00−21wnw1110090 0.3 10409
05:00−22wsw11100100 0.1 10419
08:00−23wsw1110098 0.1 10439
11:00−23sw1110089 0.0 104329
14:00−19wnw118998 0.1 1038258
17:00−20nw1194100 0.0 10389
20:00−24ssw1199100 0.0 10429